Regional Weather Roundup
Issued by NWS

Home | Current Version | Previous Version | Graphics & Text | Print | Product List | Glossary On
Versions: 1 2 3 4 5 6 7 8 9 10 11 12 13 14 15 16 17 18 19 20 21 22 23 24 25 26 27 28 29 30 31 32 33 34 35 36 37 38 39 40 41 42 43 44 45 46 47 48 49 50
347
ASUS44 KJAN 010410
RWRMS

MISSISSIPPI HOURLY WEATHER ROUNDUP
NATIONAL WEATHER SERVICE JACKSON MS
1000 PM CST SAT JAN 31 2015

NOTE: "FAIR: INDICATES FEW OR NO CLOUDS BELOW 12,000 FEET WITH NO
SIGNIFICANT WEATHER AND/OR OBSTRUCTIONS TO VISIBILITY.

MSZ001>002-007>008-010>013-018>021-025>028-034>036-010500-
NORTHWEST MISSISSIPPI

CITY           SKY/WX    TMP DP  RH WIND       PRES   REMARKS
CLARKSDALE     FAIR      46  32  57 SE6       30.12F
CLEVELAND      FAIR      50  33  51 SE9       30.11F
GREENWOOD      CLOUDY    51  25  36 S8        30.14F
GREENVILLE     CLOUDY    52  30  43 SE10      30.11F
GRENADA        CLOUDY    50  28  43 SE6       30.15F
OLIVE BRANCH   PTCLDY    43  28  56 SE8       30.11F
OXFORD         FAIR      46  23  39 SE7       30.16F
TUNICA         CLOUDY    48  30  49 S12       30.12R
$$

MSZ003>006-009-014>017-022>024-029>033-037>039-010500-
NORTHEAST MISSISSIPPI

CITY           SKY/WX    TMP DP  RH WIND       PRES   REMARKS
COLUMBUS AFB   CLOUDY    44  29  55 SE3       30.19S
GOLDN TRIANGLE CLOUDY    46  25  42 S7        30.18S
STARKVILLE     FAIR      48  27  43 S6        30.18S
TUPELO         CLOUDY    48  23  37 SW5       30.17S
$$

MSZ040-058-010500-
CENTRAL MISSISSIPPI

CITY           SKY/WX    TMP DP  RH WIND       PRES   REMARKS
JACKSON INTL   MOCLDY    48  31  51 SE8       30.17S
JACKSON HAWKNS PTCLDY    51  29  42 SE9       30.16F
MERIDIAN KEY   CLOUDY    46  30  53 CALM      30.20S
MERIDIAN NAS   CLOUDY    44  31  60 CALM      30.20S
RAYMOND        FAIR      52  48  87 SE6       30.15F
VICKSBURG      CLOUDY    53  32  44 SE13      30.13F
$$

MSZ059>079-010500-
SOUTH MISSISSIPPI

CITY           SKY/WX    TMP DP  RH WIND       PRES   REMARKS
BROOKHAVEN     FAIR      52  43  71 CALM      30.17F
HATTIESBURG    MOCLDY    50  40  68 SE3       30.21S
MCCOMB         MOCLDY    50  44  80 SE7       30.15F
NATCHEZ        CLOUDY    54  41  62 SE14      30.13F
PINE BELT      MOCLDY    46  34  61 S3        30.21R
$$

MSZ080>082-010500-
COASTAL MISSISSIPPI

CITY           SKY/WX    TMP DP  RH WIND       PRES   REMARKS
BILOXI         MOCLDY    51  47  85 E6        30.19S
PASCAGOULA     MOCLDY    46  44  93 CALM      30.20S
GULFPORT       MOCLDY    51  45  79 E3        30.19S
$$



USA.gov is the U.S. government's official web portal to all federal, state and local government web resources and services.